Location: Hamilton
(43.2500°N, 79.8330°W)
Time: 17:12:27
(UTC-05:00)

Amateur Radio Satellites - All Passes

Search period start: 05 February 2016 16:42
Search period end: 06 February 2016 16:42
Location: Hamilton, 43.2500°N, 79.8330°W

Satellite Date Start Highest point End Downlink Frequencies (MHz)
Time Altitude Azimuth
MOZHAYETS 4 05 Feb 16:48:43 16:53:21 71° 286° (WNW) 16:57:57
YUBILEINY 05 Feb 16:51:56 16:58:49 27° 280° (W) 17:05:43 435.215
Cosmos 2491 05 Feb 16:55:04 17:03:27 50° 286° (WNW) 17:11:53 435.465 / 435.565
GOMX 1 05 Feb 17:09:19 17:11:42 13° 59° (ENE) 17:14:04 467.674
BRITE-PL 05 Feb 17:13:20 17:18:00 27° 65° (ENE) 17:22:36 437.365/2234.400
CUBESAT XI-V 05 Feb 17:16:11 17:20:04 25° 94° (E) 17:23:54 437.345
LilacSat-2 05 Feb 17:18:11 17:21:39 33° 71° (ENE) 17:25:06 437.200
STARS 05 Feb 17:28:44 17:31:55 20° 296° (WNW) 17:35:06 437.465
KKS-1 05 Feb 17:34:06 17:35:27 11° 301° (WNW) 17:36:49 437.445
BEESAT 3 05 Feb 17:39:23 17:41:53 16° 111° (ESE) 17:44:23 437.485
Cosmos 2504 05 Feb 17:42:15 17:50:38 53° 271° (W) 17:58:32 435.465 / 435.565
BEESAT 2 05 Feb 17:54:49 17:57:13 15° 110° (ESE) 17:59:38 435.950
CUTE-I 05 Feb 17:58:56 18:04:14 73° 257° (WSW) 18:09:35 437.470
Cubesat XI-IV 05 Feb 18:11:13 18:16:26 56° 259° (W) 18:21:42 437.490
ISS 05 Feb 18:12:52 18:16:06 87° 146° (SE) 18:19:22 145.825
HO-68 05 Feb 18:13:33 18:19:04 25° 56° (ENE) 18:24:37 435.675
O/OREOS (USA 219) 05 Feb 18:22:47 18:27:10 43° 62° (ENE) 18:31:33 437.305
GONETS M04 05 Feb 18:24:38 18:27:34 12° 52° (NE) 18:30:29
GOMX 1 05 Feb 18:43:32 18:49:02 84° 78° (ENE) 18:54:21 467.674
CINEMA 3 05 Feb 18:45:01 18:48:04 18° 65° (ENE) 18:51:03 145.822/145.860
AO-85 05 Feb 18:45:48 18:49:19 17° 34° (NNE) 18:52:41 145.980
CUTE 1.7 + AOD 2 05 Feb 18:48:31 18:51:33 20° 66° (ENE) 18:54:35 437.475
DOVE 4 05 Feb 18:49:44 18:54:46 53° 73° (ENE) 18:59:36 437.250
RS-15 05 Feb 18:50:30 19:00:51 32° 24° (NNE) 19:11:25 29.354- 29.394
BRITE-PL 05 Feb 18:50:39 18:56:09 49° 262° (W) 19:01:38 437.365/2234.400
CUBESAT XI-V 05 Feb 18:53:13 18:57:32 36° 291° (WNW) 19:01:49 437.345
LilacSat-2 05 Feb 18:53:26 18:56:05 18° 267° (W) 18:58:43 437.200
PCSat 05 Feb 18:56:06 18:58:00 12° 32° (NNE) 18:59:53 145.827
COMPASS 1 05 Feb 18:59:05 19:01:20 14° 63° (ENE) 19:03:37 437.405
SEEDS 05 Feb 19:03:24 19:06:33 21° 66° (ENE) 19:09:43 437.485
STRAND 1 05 Feb 19:12:33 19:17:32 46° 99° (E) 19:22:29 437.568
AIST 2 05 Feb 19:13:15 19:14:27 11° 108° (ESE) 19:15:39 435.215
BEESAT 3 05 Feb 19:15:24 19:19:16 49° 308° (NW) 19:23:10 437.485
CUBEBUG 2 05 Feb 19:25:16 19:27:53 16° 64° (ENE) 19:30:26 437.445
PRISM 05 Feb 19:25:20 19:28:18 18° 93° (E) 19:31:14 437.425
BEESAT 2 05 Feb 19:30:47 19:34:43 52° 307° (NW) 19:38:41 435.950
AAUSAT CUBESAT 2 05 Feb 19:31:08 19:34:32 25° 68° (ENE) 19:37:57 437.432
CANX-2 05 Feb 19:31:22 19:35:31 62° 74° (ENE) 19:39:42 2200.000
UWE-3 05 Feb 19:36:34 19:38:58 15° 64° (ENE) 19:41:21 435.000/436.395/437.385
ISS 05 Feb 19:50:11 19:52:53 24° 345° (NNW) 19:55:36 145.825
Oscar 11 05 Feb 19:56:30 19:59:47 22° 66° (ENE) 20:03:05 145.826/435.025
HO-68 05 Feb 19:58:58 20:06:07 73° 256° (WSW) 20:13:21 435.675
O/OREOS (USA 219) 05 Feb 20:02:56 20:06:15 20° 259° (W) 20:09:34 437.305
GONETS M04 05 Feb 20:18:02 20:26:41 57° 76° (ENE) 20:35:19
CINEMA 3 05 Feb 20:20:13 20:24:52 53° 260° (W) 20:29:19 145.822/145.860
CUTE 1.7 + AOD 2 05 Feb 20:23:12 20:27:08 38° 262° (W) 20:31:06 437.475
GOMX 1 05 Feb 20:25:06 20:27:39 13° 272° (W) 20:30:11 467.674
AO-85 05 Feb 20:25:31 20:30:46 80° 55° (NE) 20:35:33 145.980
DOVE 4 05 Feb 20:29:00 20:32:43 20° 268° (W) 20:36:19 437.250
COMPASS 1 05 Feb 20:32:26 20:36:29 54° 260° (W) 20:40:34 437.405
PCSat 05 Feb 20:37:28 20:42:46 49° 54° (NE) 20:48:01 145.827
SEEDS 05 Feb 20:38:15 20:42:04 34° 263° (W) 20:45:55 437.485
ZACube-1 05 Feb 20:39:42 20:43:46 46° 72° (ENE) 20:47:48 437.345
AIST 2 05 Feb 20:48:11 20:52:20 76° 303° (WNW) 20:56:32 435.215
FUNcube-1 05 Feb 20:51:12 20:55:22 60° 74° (ENE) 20:59:30 145.935
STRAND 1 05 Feb 20:52:22 20:56:25 24° 297° (WNW) 21:00:28 437.568
CUBEBUG 2 05 Feb 20:59:49 21:04:08 53° 260° (W) 21:08:20 437.445
PRISM 05 Feb 20:59:52 21:03:48 39° 290° (WNW) 21:07:41 437.425
AIST 1 05 Feb 21:03:39 21:04:03 10° 65° (ENE) 21:04:25
RS-15 05 Feb 21:03:39 21:15:50 74° 52° (NE) 21:28:12 29.354- 29.394
Cosmos 2499 05 Feb 21:04:17 21:12:36 49° 74° (ENE) 21:20:17 435.465 / 435.565
AAUSAT CUBESAT 2 05 Feb 21:06:24 21:09:57 28° 264° (W) 21:13:32 437.432
CANX-2 05 Feb 21:10:18 21:11:48 12° 271° (W) 21:13:19 2200.000
UWE-3 05 Feb 21:10:47 21:15:02 55° 260° (W) 21:19:12 435.000/436.395/437.385
DELFI C3 05 Feb 21:22:06 21:26:04 82° 258° (WSW) 21:30:04 145.870
ISS 05 Feb 21:27:44 21:30:08 19° 6° (N) 21:32:32 145.825
Oscar 11 05 Feb 21:31:46 21:35:42 36° 263° (W) 21:39:42 145.826/435.025
UKube-1 05 Feb 21:34:18 21:36:03 12° 60° (ENE) 21:37:48 .
DX 1 05 Feb 21:36:53 21:39:27 15° 62° (ENE) 21:42:02 434.975-435.025
HUMSAT D 05 Feb 21:39:25 21:43:28 63° 74° (ENE) 21:47:31 437.325/437.525
HO-68 05 Feb 21:52:20 21:55:01 12° 274° (W) 21:57:43 435.675
UNISAT 6 05 Feb 22:02:18 22:05:46 23° 94° (E) 22:09:15 437.425
AO-85 05 Feb 22:08:00 22:10:28 14° 255° (WSW) 22:12:51 145.980
VELOX 1 05 Feb 22:12:55 22:16:52 32° 68° (ENE) 22:20:49 145.980
GONETS M04 05 Feb 22:15:32 22:23:01 33° 277° (W) 22:30:32
ZACube-1 05 Feb 22:17:45 22:20:19 16° 268° (W) 22:22:53 437.345
PCSat 05 Feb 22:21:27 22:25:51 26° 252° (WSW) 22:30:14 145.827
AISAT 05 Feb 22:28:18 22:32:35 47° 72° (ENE) 22:36:54 437.250
AIST 2 05 Feb 22:29:43 22:31:35 13° 324° (NW) 22:33:26 435.215
FUNcube-1 05 Feb 22:30:18 22:32:00 12° 270° (W) 22:33:42 145.935
50 SAT 05 Feb 22:30:49 22:34:25 54° 74° (ENE) 22:38:04 437.505
ESTCUBE 1 05 Feb 22:31:15 22:35:39 53° 72° (ENE) 22:40:05 437.505/2401.250
AIST 1 05 Feb 22:37:53 22:42:16 79° 264° (W) 22:46:36
ANTELSAT 05 Feb 22:46:51 22:51:08 70° 101° (ESE) 22:55:30 437.575/2403.000
TIGRISAT 05 Feb 22:55:23 22:59:42 83° 103° (ESE) 23:04:04 435.000
Cosmos 2499 05 Feb 22:57:52 23:05:27 37° 275° (W) 23:12:34 435.465 / 435.565
CUBEBUG 1 05 Feb 23:01:34 23:06:00 84° 75° (ENE) 23:10:29 437.445
ISS 05 Feb 23:04:04 23:07:11 41° 25° (NNE) 23:10:18 145.825
UKube-1 05 Feb 23:07:11 23:11:31 74° 257° (WSW) 23:15:53 .
DX 1 05 Feb 23:10:52 23:15:12 57° 259° (W) 23:19:32 434.975-435.025
POLYITAN 1 05 Feb 23:10:54 23:14:39 31° 97° (E) 23:18:23 437.675
QB50P2 05 Feb 23:11:46 23:15:34 32° 97° (E) 23:19:22 145.880/145.840
RS-15 05 Feb 23:16:57 23:27:27 36° 255° (WSW) 23:38:03 29.354- 29.394
HUMSAT D 05 Feb 23:18:30 23:19:32 11° 271° (W) 23:20:33 437.325/437.525
SPROUT 05 Feb 23:24:38 23:28:49 52° 73° (ENE) 23:33:01 437.525
UNISAT 6 05 Feb 23:38:41 23:42:32 33° 291° (WNW) 23:46:26 437.425
BUGSAT 1 05 Feb 23:40:20 23:43:57 30° 96° (E) 23:47:31 437.445
POPSAT HIP 1 05 Feb 23:42:30 23:46:42 69° 102° (ESE) 23:50:52 437.405
VELOX 1 05 Feb 23:49:36 23:53:21 26° 265° (W) 23:57:07 145.980
NANOSAT C BR1 05 Feb 23:50:10 23:54:23 82° 104° (ESE) 23:58:34 145.865
TISAT 1 05 Feb 23:51:47 23:55:44 39° 71° (ENE) 23:59:42 437.305
DUCHIFAT 1 05 Feb 23:53:43 23:57:56 86° 104° (ESE) 00:02:06 145.980
QB50P1 05 Feb 23:55:36 23:59:49 84° 287° (WNW) 00:04:02 145.935-145.965
BEESAT 06 Feb 00:03:30 00:05:25 12° 59° (ENE) 00:07:20 436.000
AISAT 06 Feb 00:06:21 00:09:19 17° 268° (W) 00:12:19 437.250
50 SAT 06 Feb 00:08:16 00:08:49 10° 270° (W) 00:09:22 437.505
ESTCUBE 1 06 Feb 00:10:04 00:12:48 16° 269° (W) 00:15:32 437.505/2401.250
ANTELSAT 06 Feb 00:25:33 00:27:20 12° 299° (WNW) 00:29:07 437.575/2403.000
TIGRISAT 06 Feb 00:34:54 00:35:46 11° 300° (WNW) 00:36:38 435.000
ISS 06 Feb 00:40:43 00:43:33 28° 223° (SW) 00:46:23 145.825
POLYITAN 1 06 Feb 00:46:58 00:50:20 24° 293° (WNW) 00:53:41 437.675
QB50P2 06 Feb 00:47:55 00:51:14 23° 294° (WNW) 00:54:32 145.880/145.840
SWISSCUBE 06 Feb 00:52:17 00:56:40 38° 69° (ENE) 01:01:04 437.505
Oscar 19 06 Feb 00:52:36 00:56:33 22° 93° (E) 01:00:27 437.125/150
SPROUT 06 Feb 01:02:42 01:05:07 15° 269° (W) 01:07:32 437.525
Cosmos 2491 06 Feb 01:08:08 01:14:06 20° 60° (ENE) 01:20:03 435.465 / 435.565
BUGSAT 1 06 Feb 01:16:01 01:19:12 22° 293° (WNW) 01:22:21 437.445
POPSAT HIP 1 06 Feb 01:20:18 01:21:56 12° 299° (WNW) 01:23:35 437.405
ITUPSAT 1 06 Feb 01:26:13 01:30:58 73° 73° (ENE) 01:35:45 437.325
TISAT 1 06 Feb 01:28:34 01:31:34 19° 267° (W) 01:34:35 437.305
DANDE 06 Feb 01:28:35 01:33:36 19° 78° (ENE) 01:39:00 436.750
NANOSAT C BR1 06 Feb 01:28:56 01:29:29 10° 300° (WNW) 01:30:02 145.865
CUSAT 1 06 Feb 01:31:26 01:38:10 34° 86° (E) 01:45:14 437.405
BEESAT 06 Feb 01:37:45 01:42:30 85° 253° (WSW) 01:47:19 436.000
JAS-2 06 Feb 01:38:47 01:44:17 40° 96° (E) 01:49:17 435.910
ITAMSAT 1 06 Feb 01:51:59 01:55:04 16° 90° (E) 01:58:09 435.822/435.867
BEESAT 3 06 Feb 01:55:09 01:57:50 17° 41° (NE) 02:00:31 437.485
YUBILEINY 06 Feb 02:04:41 02:09:07 15° 74° (ENE) 02:13:36 435.215
BEESAT 2 06 Feb 02:11:10 02:13:50 17° 40° (NE) 02:16:30 435.950
MOZHAYETS 4 06 Feb 02:16:53 02:19:18 14° 61° (ENE) 02:21:43
Gurwin Techsat 1B 06 Feb 02:25:26 02:30:43 60° 101° (E) 02:35:58 435.225
SWISSCUBE 06 Feb 02:30:42 02:34:34 24° 266° (W) 02:38:27 437.505
Oscar 19 06 Feb 02:31:11 02:36:06 47° 290° (WNW) 02:40:59 437.125/150
AO-7 06 Feb 02:36:39 02:41:24 16° 88° (E) 02:46:08 29.400- 29.500
STARS 06 Feb 02:49:11 02:53:21 42° 70° (ENE) 02:57:30 437.465
KKS-1 06 Feb 02:53:50 02:58:18 85° 75° (ENE) 03:02:47 437.445
Cosmos 2491 06 Feb 03:03:31 03:12:19 87° 82° (E) 03:21:06 435.465 / 435.565
ITUPSAT 1 06 Feb 03:07:18 03:09:20 13° 271° (W) 03:11:22 437.325
DANDE 06 Feb 03:07:53 03:15:15 87° 100° (E) 03:23:48 436.750
CUSAT 1 06 Feb 03:12:27 03:20:05 58° 285° (WNW) 03:28:08 437.405
PHONESAT 2.4 06 Feb 03:16:16 03:19:01 25° 159° (SSE) 03:21:47 2401.200-2431.200
JAS-2 06 Feb 03:24:09 03:29:13 30° 297° (WNW) 03:33:51 435.910
ITAMSAT 1 06 Feb 03:29:49 03:35:02 68° 287° (WNW) 03:40:13 435.822/435.867
AIST 2 06 Feb 03:31:27 03:33:48 14° 38° (NE) 03:36:07 435.215
BEESAT 3 06 Feb 03:32:03 03:35:59 59° 240° (WSW) 03:39:50 437.485
BEESAT 2 06 Feb 03:48:11 03:52:08 62° 239° (WSW) 03:56:03 435.950
MOZHAYETS 4 06 Feb 03:51:24 03:55:56 67° 259° (W) 04:00:30
YUBILEINY 06 Feb 03:55:36 04:04:20 77° 94° (E) 04:13:09 435.215
Gurwin Techsat 1B 06 Feb 04:06:26 04:10:12 20° 299° (WNW) 04:13:59 435.225
HORYU 2 06 Feb 04:11:17 04:15:09 29° 96° (E) 04:19:00 437.375
CUBESAT XI-V 06 Feb 04:20:29 04:24:26 27° 67° (ENE) 04:28:24 437.345
M-CUBED/EXP-1 PRIME 06 Feb 04:25:27 04:28:41 49° 106° (ESE) 04:32:03 437.505
STARS 06 Feb 04:26:43 04:29:53 19° 267° (W) 04:33:04 437.465
AO-7 06 Feb 04:27:01 04:35:25 81° 107° (ESE) 04:43:43 29.400- 29.500
Cosmos 2504 06 Feb 04:28:42 04:35:38 29° 81° (E) 04:42:48 435.465 / 435.565
AUBIESAT-1 06 Feb 04:39:13 04:42:33 61° 107° (ESE) 04:46:02 437.475
PHONESAT 2.4 06 Feb 04:52:48 04:55:59 50° 175° (S) 04:59:11 2401.200-2431.200
DANDE 06 Feb 04:53:30 04:59:26 23° 300° (WNW) 05:05:51 436.750
STRAND 1 06 Feb 04:55:06 04:56:11 11° 56° (NE) 04:57:16 437.568
CUSAT 1 06 Feb 05:00:19 05:04:10 14° 306° (NW) 05:08:03 437.405
Cosmos 2491 06 Feb 05:02:12 05:07:57 20° 283° (WNW) 05:13:43 435.465 / 435.565
AIST 2 06 Feb 05:08:44 05:12:53 85° 237° (WSW) 05:16:59 435.215
ITAMSAT 1 06 Feb 05:13:04 05:13:32 10° 305° (NW) 05:14:00 435.822/435.867
SO-50 06 Feb 05:41:17 05:45:42 35° 115° (ESE) 05:50:11 436.795
HORYU 2 06 Feb 05:47:52 05:51:40 28° 293° (WNW) 05:55:27 437.375
YUBILEINY 06 Feb 05:55:12 06:02:06 25° 296° (WNW) 06:09:04 435.215
CUBESAT XI-V 06 Feb 05:57:29 06:01:43 33° 264° (W) 06:05:58 437.345
M-CUBED/EXP-1 PRIME 06 Feb 06:02:08 06:03:01 11° 301° (WNW) 06:03:54 437.505
CUTE-I 06 Feb 06:15:00 06:20:06 42° 98° (E) 06:25:10 437.470
PRISM 06 Feb 06:16:26 06:19:06 17° 63° (ENE) 06:21:46 437.425
Cosmos 2504 06 Feb 06:19:52 06:28:17 66° 282° (WNW) 06:37:10 435.465 / 435.565
AO-7 06 Feb 06:20:50 06:27:20 26° 308° (NW) 06:33:49 29.400- 29.500
LilacSat-2 06 Feb 06:24:34 06:28:12 43° 99° (E) 06:31:48 437.200
Cubesat XI-IV 06 Feb 06:27:13 06:32:30 54° 101° (E) 06:37:45 437.490
STRAND 1 06 Feb 06:29:21 06:34:26 74° 74° (ENE) 06:39:35 437.568
PHONESAT 2.4 06 Feb 06:29:58 06:33:04 40° 192° (SSW) 06:36:08 2401.200-2431.200
GOMX 1 06 Feb 06:45:56 06:49:23 21° 92° (E) 06:52:40 467.674
DOVE 4 06 Feb 06:50:40 06:51:41 11° 88° (E) 06:52:43 437.250
BRITE-PL 06 Feb 06:55:10 07:00:02 54° 99° (E) 07:04:30 437.365/2234.400
CANX-2 06 Feb 07:18:31 07:18:56 10° 88° (E) 07:19:21 2200.000
SO-50 06 Feb 07:21:40 07:26:12 36° 314° (NW) 07:30:46 436.795
HO-68 06 Feb 07:26:40 07:31:51 21° 91° (E) 07:37:00 435.675
GONETS M04 06 Feb 07:31:37 07:33:41 11° 71° (ENE) 07:35:44
PRISM 06 Feb 07:50:04 07:54:04 46° 260° (W) 07:58:07 437.425
CUTE-I 06 Feb 07:55:27 07:59:57 28° 296° (WNW) 08:04:27 437.470
LilacSat-2 06 Feb 08:00:05 08:02:10 14° 295° (WNW) 08:04:15 437.200
CUTE 1.7 + AOD 2 06 Feb 08:06:58 08:10:49 31° 96° (E) 08:14:39 437.475
PHONESAT 2.4 06 Feb 08:07:58 08:09:51 15° 208° (SSW) 08:11:44 2401.200-2431.200
Cubesat XI-IV 06 Feb 08:08:06 08:12:11 23° 298° (WNW) 08:16:16 437.490
STRAND 1 06 Feb 08:11:38 08:14:10 14° 271° (W) 08:16:44 437.568
CINEMA 3 06 Feb 08:14:13 08:17:53 30° 96° (E) 08:21:32 145.822/145.860
COMPASS 1 06 Feb 08:14:51 08:18:09 22° 94° (E) 08:21:25 437.405
Cosmos 2504 06 Feb 08:19:11 08:23:41 15° 305° (NW) 08:28:17 435.465 / 435.565
SEEDS 06 Feb 08:20:52 08:24:46 34° 97° (E) 08:28:38 437.485
GOMX 1 06 Feb 08:23:26 08:27:40 37° 291° (WNW) 08:31:39 467.674
DOVE 4 06 Feb 08:25:39 08:29:58 66° 286° (WNW) 08:34:07 437.250
BRITE-PL 06 Feb 08:34:41 08:38:00 18° 299° (WNW) 08:41:10 437.365/2234.400
O/OREOS (USA 219) 06 Feb 08:36:09 08:40:20 40° 106° (ESE) 08:44:33 437.305
AAUSAT CUBESAT 2 06 Feb 08:47:08 08:51:07 40° 98° (E) 08:55:04 437.432
CUBEBUG 2 06 Feb 08:49:47 08:53:21 26° 95° (E) 08:56:55 437.445
CANX-2 06 Feb 08:51:00 08:55:17 74° 285° (WNW) 08:59:34 2200.000
UWE-3 06 Feb 08:59:36 09:03:04 25° 95° (E) 09:06:34 435.000/436.395/437.385
DELFI C3 06 Feb 09:00:59 09:02:40 12° 90° (E) 09:04:21 145.870
UNISAT 6 06 Feb 09:02:26 09:05:55 24° 67° (ENE) 09:09:23 437.425
HO-68 06 Feb 09:13:03 09:20:16 77° 289° (WNW) 09:27:26 435.675
Oscar 11 06 Feb 09:17:36 09:21:38 36° 97° (E) 09:25:38 145.826/435.025
GONETS M04 06 Feb 09:20:04 09:28:34 63° 92° (E) 09:37:08
Cosmos 2499 06 Feb 09:41:05 09:48:54 40° 85° (E) 09:56:54 435.465 / 435.565
CUTE 1.7 + AOD 2 06 Feb 09:43:05 09:46:31 24° 293° (WNW) 09:49:59 437.475
ANTELSAT 06 Feb 09:46:34 09:50:54 70° 74° (ENE) 09:55:11 437.575/2403.000
COMPASS 1 06 Feb 09:49:58 09:53:47 33° 290° (WNW) 09:57:35 437.405
CINEMA 3 06 Feb 09:51:37 09:54:56 23° 293° (WNW) 09:58:13 145.822/145.860
TIGRISAT 06 Feb 09:54:54 09:59:16 82° 74° (ENE) 10:03:34 435.000
SEEDS 06 Feb 09:56:59 10:00:18 22° 293° (WNW) 10:03:37 437.485
ZACube-1 06 Feb 10:02:47 10:06:59 89° 107° (ESE) 10:11:14 437.345
POLYITAN 1 06 Feb 10:04:42 10:08:18 28° 68° (ENE) 10:11:55 437.675
QB50P2 06 Feb 10:05:30 10:09:10 29° 68° (ENE) 10:12:50 145.880/145.840
FUNcube-1 06 Feb 10:14:06 10:18:16 72° 285° (WNW) 10:22:29 145.935
O/OREOS (USA 219) 06 Feb 10:16:21 10:19:54 22° 305° (NW) 10:23:28 437.305
AAUSAT CUBESAT 2 06 Feb 10:23:22 10:26:20 19° 295° (WNW) 10:29:19 437.432
ESTCUBE 1 06 Feb 10:25:42 10:26:27 10° 88° (E) 10:27:13 437.505/2401.250
CUBEBUG 2 06 Feb 10:26:27 10:29:56 26° 292° (WNW) 10:33:26 437.445
BUGSAT 1 06 Feb 10:31:08 10:34:39 26° 68° (ENE) 10:38:10 437.445
DELFI C3 06 Feb 10:33:58 10:37:56 55° 286° (WNW) 10:41:53 145.870
POPSAT HIP 1 06 Feb 10:35:46 10:39:56 58° 73° (ENE) 10:44:07 437.405
UWE-3 06 Feb 10:35:57 10:39:32 28° 291° (WNW) 10:43:10 435.000/436.395/437.385
UNISAT 6 06 Feb 10:38:36 10:42:31 32° 263° (W) 10:46:24 437.425
AO-85 06 Feb 10:40:58 10:45:12 24° 110° (ESE) 10:49:33 145.980
NANOSAT C BR1 06 Feb 10:43:03 10:47:16 69° 75° (ENE) 10:51:29 145.865
DUCHIFAT 1 06 Feb 10:46:21 10:50:34 71° 74° (ENE) 10:54:47 145.980
QB50P1 06 Feb 10:48:44 10:52:59 82° 75° (ENE) 10:57:14 145.935-145.965
CUBEBUG 1 06 Feb 10:50:47 10:53:09 14° 90° (E) 10:55:31 437.445
Oscar 11 06 Feb 10:54:12 10:57:33 22° 294° (WNW) 11:00:53 145.826/435.025
UKube-1 06 Feb 10:54:27 10:57:16 17° 92° (E) 11:00:05 .
HUMSAT D 06 Feb 10:57:15 11:01:23 77° 285° (WNW) 11:05:34 437.325/437.525
DX 1 06 Feb 10:58:38 11:02:03 22° 94° (E) 11:05:26 434.975-435.025
HO-68 06 Feb 11:02:35 11:06:50 17° 309° (NW) 11:11:05 435.675
AIST 1 06 Feb 11:07:52 11:12:11 57° 94° (E) 11:16:31
GONETS M04 06 Feb 11:18:37 11:25:59 30° 293° (WNW) 11:33:26
PCSat 06 Feb 11:20:25 11:25:17 35° 111° (ESE) 11:30:12 145.827
ANTELSAT 06 Feb 11:26:56 11:28:04 11° 271° (W) 11:29:14 437.575/2403.000
RS-15 06 Feb 11:29:15 11:39:11 40° 107° (ESE) 11:49:32 29.354- 29.394
Cosmos 2499 06 Feb 11:33:28 11:41:48 50° 286° (WNW) 11:50:25 435.465 / 435.565
50 SAT 06 Feb 11:35:11 11:38:58 66° 102° (ESE) 11:42:45 437.505
VELOX 1 06 Feb 11:37:53 11:42:14 53° 100° (E) 11:46:32 145.980
POLYITAN 1 06 Feb 11:40:28 11:44:05 27° 264° (W) 11:47:42 437.675
QB50P2 06 Feb 11:41:25 11:44:58 26° 265° (W) 11:48:32 145.880/145.840
JAS-2 06 Feb 11:50:58 11:57:07 27° 61° (ENE) 12:02:52 435.910
AISAT 06 Feb 11:53:45 11:58:12 84° 105° (ESE) 12:02:35 437.250
ESTCUBE 1 06 Feb 11:59:15 12:03:51 80° 285° (WNW) 12:08:23 437.505/2401.250
BUGSAT 1 06 Feb 12:06:19 12:09:58 28° 264° (W) 12:13:36 437.445
DANDE 06 Feb 12:07:33 12:12:04 16° 54° (NE) 12:16:05 436.750
CUSAT 1 06 Feb 12:08:25 12:13:18 21° 60° (ENE) 12:17:21 437.405
Oscar 19 06 Feb 12:10:09 12:14:51 36° 68° (ENE) 12:19:34 437.125/150
Gurwin Techsat 1B 06 Feb 12:10:37 12:13:38 15° 59° (ENE) 12:16:38 435.225
POPSAT HIP 1 06 Feb 12:14:09 12:16:06 13° 270° (W) 12:18:03 437.405
AO-85 06 Feb 12:20:05 12:25:23 56° 309° (NW) 12:30:49 145.980
NANOSAT C BR1 06 Feb 12:22:25 12:23:28 11° 271° (W) 12:24:31 145.865
CUBEBUG 1 06 Feb 12:25:30 12:29:48 55° 287° (WNW) 12:34:03 437.445
DUCHIFAT 1 06 Feb 12:26:07 12:26:45 10° 271° (W) 12:27:23 145.980
UKube-1 06 Feb 12:29:26 12:33:35 46° 289° (WNW) 12:37:42 .
SO-50 06 Feb 12:33:15 12:34:22 11° 26° (NNE) 12:35:28 436.795
DX 1 06 Feb 12:34:21 12:38:20 35° 291° (WNW) 12:42:17 434.975-435.025
SPROUT 06 Feb 12:45:30 12:49:47 90° 59° (ENE) 12:54:03 437.525
AIST 1 06 Feb 12:47:53 12:50:11 14° 292° (WNW) 12:52:30
PCSat 06 Feb 13:03:38 13:08:39 37° 310° (NW) 13:13:42 145.827
TISAT 1 06 Feb 13:10:04 13:14:14 61° 102° (ESE) 13:18:21 437.305
ITAMSAT 1 06 Feb 13:10:32 13:14:51 28° 65° (ENE) 13:19:12 435.822/435.867
50 SAT 06 Feb 13:11:51 13:12:29 10° 298° (WNW) 13:13:06 437.505
VELOX 1 06 Feb 13:15:31 13:18:17 16° 297° (WNW) 13:21:02 145.980
ITUPSAT 1 06 Feb 13:26:46 13:29:58 17° 92° (E) 13:33:08 437.325
AISAT 06 Feb 13:32:45 13:34:01 11° 301° (WNW) 13:35:17 437.250
JAS-2 06 Feb 13:33:51 13:41:37 70° 258° (WSW) 13:48:50 435.910
Cosmos 2499 06 Feb 13:35:50 13:37:30 11° 310° (NW) 13:39:10 435.465 / 435.565
AO-7 06 Feb 13:36:18 13:43:08 29° 54° (NE) 13:49:57 29.400- 29.500
BEESAT 06 Feb 13:37:29 13:41:15 23° 94° (E) 13:44:59 436.000
RS-15 06 Feb 13:39:51 13:50:57 65° 311° (NW) 14:02:45 29.354- 29.394
Gurwin Techsat 1B 06 Feb 13:47:35 13:52:54 80° 257° (WSW) 13:58:15 435.225
DANDE 06 Feb 13:48:59 13:56:43 78° 79° (E) 14:02:39 436.750
Oscar 19 06 Feb 13:49:42 13:54:12 30° 265° (W) 13:58:43 437.125/150
CUSAT 1 06 Feb 13:49:59 13:56:24 60° 266° (W) 14:01:15 437.405
AO-85 06 Feb 14:04:02 14:07:07 15° 330° (NNW) 14:10:12 145.980
YUBILEINY 06 Feb 14:04:43 14:12:59 41° 71° (ENE) 14:21:07 435.215
SO-50 06 Feb 14:11:34 14:16:12 42° 48° (NE) 14:20:39 436.795
Cosmos 2491 06 Feb 14:12:39 14:18:30 20° 78° (ENE) 14:24:19 435.465 / 435.565
Cosmos 2504 06 Feb 14:21:58 14:24:21 11° 51° (NE) 14:26:42 435.465 / 435.565
SWISSCUBE 06 Feb 14:28:34 14:33:24 79° 103° (ESE) 14:38:12 437.505
KKS-1 06 Feb 14:45:10 14:47:44 15° 91° (E) 14:50:16 437.445
TISAT 1 06 Feb 14:47:25 14:49:24 13° 298° (WNW) 14:51:22 437.305
ITAMSAT 1 06 Feb 14:49:17 14:54:08 40° 262° (W) 14:59:02 435.822/435.867
ITUPSAT 1 06 Feb 15:03:25 15:08:07 54° 288° (WNW) 15:12:49 437.325
HORYU 2 06 Feb 15:10:23 15:14:15 31° 68° (ENE) 15:18:09 437.375
M-CUBED/EXP-1 PRIME 06 Feb 15:13:31 15:17:19 87° 70° (ENE) 15:20:50 437.505
BEESAT 06 Feb 15:14:41 15:19:11 41° 291° (WNW) 15:23:40 436.000
JAS-2 06 Feb 15:24:28 15:27:36 13° 275° (W) 15:30:40 435.910
AO-7 06 Feb 15:26:50 15:35:12 73° 254° (WSW) 15:43:37 29.400- 29.500
AUBIESAT-1 06 Feb 15:26:54 15:30:39 79° 252° (WSW) 15:34:11 437.475
DANDE 06 Feb 15:33:38 15:38:25 19° 282° (WNW) 15:42:35 436.750
MOZHAYETS 4 06 Feb 15:45:41 15:49:37 27° 95° (E) 15:53:32
SO-50 06 Feb 15:52:30 15:56:28 26° 247° (WSW) 16:00:21 436.795
RS-15 06 Feb 15:56:40 16:06:19 29° 342° (NNW) 16:16:23 29.354- 29.394
YUBILEINY 06 Feb 16:01:33 16:09:53 48° 272° (W) 16:18:09 435.215
CUTE-I 06 Feb 16:02:21 16:04:00 11° 55° (NE) 16:05:38 437.470
Cosmos 2491 06 Feb 16:05:25 16:14:09 85° 278° (W) 16:22:56 435.465 / 435.565
SWISSCUBE 06 Feb 16:08:15 16:10:34 14° 301° (WNW) 16:12:52 437.505
Cosmos 2504 06 Feb 16:11:39 16:20:13 54° 75° (ENE) 16:28:13 435.465 / 435.565
Cubesat XI-IV 06 Feb 16:13:30 16:16:18 15° 58° (ENE) 16:19:07 437.490
STARS 06 Feb 16:13:32 16:17:55 71° 102° (ESE) 16:22:16 437.465
KKS-1 06 Feb 16:20:18 16:24:38 54° 288° (WNW) 16:28:56 437.445
BRITE-PL 06 Feb 16:31:33 16:33:33 12° 57° (ENE) 16:35:32 437.365/2234.400
